Weather in Forte dei Marmi

Italy     43°58′06″N   10°09′18″E
temp.,
°C
wind,
m/s
gust,
m/s
humid.,
%
clouds,
%
prec.,
mm/h
press.,
hPa
HPBL,
m
19 april, mon
mon1923:00+6ne2378100 0.1 101771
02:00+5ne23759 0.1 101669
05:00+4nne227226 0.0 101659
08:00+6ne126693 0.0 101699
11:00+12sw234866 0.0 10151461
14:00+12sw325482 0.3 10151254
17:00+11wsw226199 0.9 1014893
20:00+8wnw227470 1.4 1015160
20 april, tue
tue2023:00+7n228118 0.0 101799
02:00+7nne117893 0.0 101639
05:00+6n1177100 0.0 101641
08:00+8nnw117689 0.0 101781
11:00+9wsw127695 0.1 1018415
14:00+13wsw336054 0.2 10161302
17:00+11wsw336732 0.2 1016930
20:00+9wsw22820 0.3 1017151
21 april, wed
wed2123:00+7nnw11860 0.0 101995
02:00+6ne11850 0.0 101923
05:00+6ne22785 0.0 101939
08:00+8ene1273100 0.0 101986
11:00+12s226492 0.0 10191034
14:00+13sw2360100 0.4 10191203
17:00+12ssw3363100 0.1 1018921
20:00+10sse1180100 0.1 1018272
22 april, thu
thu2223:00+9ene1181100 0.0 101935
02:00+8ne227499 0.0 101942
05:00+9ne2265100 0.0 101841
08:00+10ese116399 0.0 1018103
11:00+10ese237591 0.4 1018517
14:00+13sse225865 0.4 10171142
17:00+12s216573 0.0 1016767
20:00+10s117813 0.0 101657
23 april, fri
fri2323:00+8ne11837 0.0 101726
02:00+8ne22820 0.0 101632
05:00+7ne22780 0.0 101636
08:00+10ne12684 0.0 101668
11:00+15sw225054 0.0 10161322
14:00+14wsw1160100 0.1 1016768
17:00+15ene125544 0.1 1016935
20:00+11ne23712 0.1 101895